DW5310 Weather Reports


Display with metric or nautical units.
time (UTC)temp
F
wind
direction
speed
MPH
gust
MPH
rain 1hr
in
rain 24hr
in
rain mn
in
humidity
%
barometer
mb
20210615101005 54 248 0.0 0.0 0.00 0.05 0.00 91 1018.5
20210615100505 55 248 0.0 0.0 0.00 0.05 0.00 90 1018.5
20210615100005 55 248 0.0 0.0 0.00 0.05 0.00 90 1018.5
20210615095505 55 248 0.0 0.0 0.00 0.05 0.00 90 1018.5
20210615095005 55 248 0.0 0.0 0.00 0.05 0.00 90 1018.5
20210615094508 55 248 0.0 0.0 0.00 0.05 0.00 89 1018.5
20210615094005 55 248 0.0 0.0 0.00 0.05 0.00 89 1018.5
20210615093505 55 248 0.0 0.0 0.00 0.05 0.00 89 1018.5
20210615093005 55 248 0.0 0.0 0.00 0.05 0.00 88 1018.5
20210615092505 56 248 0.0 0.0 0.00 0.05 0.00 87 1018.5
20210615092004 56 248 0.0 0.0 0.00 0.05 0.00 87 1018.5
20210615091505 56 248 0.0 0.0 0.00 0.05 0.00 87 1018.5
20210615091005 56 248 0.0 0.0 0.00 0.05 0.00 87 1018.5
20210615090505 56 248 0.0 0.0 0.00 0.05 0.00 87 1018.5
20210615090005 57 248 0.0 1.0 0.00 0.05 0.00 87 1018.5
20210615085504 57 248 0.0 0.0 0.00 0.05 0.00 87 1018.5
20210615085005 57 248 0.0 0.0 0.00 0.05 0.00 87 1018.5
20210615084505 57 248 0.0 0.0 0.00 0.05 0.00 86 1018.5
20210615084005 57 248 0.0 0.0 0.00 0.05 0.00 86 1018.5
20210615083504 57 248 0.0 0.0 0.00 0.05 0.00 87 1018.5
20210615083005 57 248 0.0 0.0 0.00 0.05 0.00 87 1018.5
20210615082504 58 248 0.0 0.0 0.00 0.05 0.00 86 1018.5
20210615082005 58 248 0.0 0.0 0.00 0.05 0.00 86 1018.5
20210615081504 58 248 0.0 0.0 0.00 0.05 0.00 86 1018.5
20210615081005 58 248 0.0 1.0 0.00 0.05 0.00 85 1017.5
20210615080505 58 248 0.0 0.0 0.00 0.05 0.00 85 1017.5
20210615080005 58 248 0.0 0.0 0.00 0.05 0.00 85 1017.5
20210615075505 58 248 0.0 1.0 0.00 0.05 0.00 85 1018.5
20210615075005 58 248 0.0 1.0 0.00 0.05 0.00 85 1018.5
20210615074505 58 248 0.0 0.0 0.00 0.05 0.00 84 1018.5
20210615074005 58 248 0.0 0.0 0.00 0.05 0.00 84 1017.5
20210615073504 58 248 0.0 0.0 0.00 0.05 0.00 84 1017.5
20210615073005 59 248 0.0 0.0 0.00 0.05 0.00 84 1017.5
20210615072505 59 248 0.0 1.0 0.00 0.05 0.00 84 1018.5
20210615072005 59 248 0.0 0.0 0.00 0.05 0.00 84 1018.5
20210615071504 59 248 0.0 1.0 0.00 0.05 0.00 84 1018.5
20210615071005 59 270 0.0 1.0 0.00 0.05 0.00 85 1018.5
20210615070504 59 248 1.0 1.0 0.00 0.05 0.00 85 1018.5
20210615070004 59 248 1.0 1.0 0.00 0.05 0.00 84 1018.5
20210615065504 59 202 1.0 0.0 0.00 0.05 0.05 84 1017.5
20210615065005 59 202 0.0 2.0 0.00 0.05 0.05 85 1017.5
20210615064505 59 248 0.0 2.0 0.00 0.05 0.05 85 1017.5
20210615064005 59 330 1.0 2.0 0.00 0.05 0.05 86 1017.5
20210615063504 59 225 0.0 2.0 0.00 0.05 0.05 86 1017.5
20210615063005 59 344 1.0 2.0 0.00 0.05 0.05 86 1017.5
20210615062505 59 315 1.0 2.0 0.00 0.05 0.05 86 1017.5
20210615062005 59 292 1.0 2.0 0.00 0.05 0.05 86 1017.5
20210615061505 59 292 0.0 0.0 0.00 0.05 0.05 85 1017.5
20210615061005 59 292 1.0 2.0 0.00 0.05 0.05 85 1017.5
20210615060505 59 270 0.0 1.0 0.00 0.05 0.05 85 1017.5
20210615060005 59 292 0.0 1.0 0.00 0.05 0.05 84 1017.5
20210615055505 59 292 0.0 2.0 0.00 0.05 0.05 84 1017.5
20210615055005 59 277 1.0 2.0 0.00 0.05 0.05 84 1017.5
20210615054504 59 248 0.0 0.0 0.00 0.05 0.05 84 1017.5
20210615054005 59 248 0.0 2.0 0.00 0.05 0.05 84 1017.5
20210615053505 59 315 1.0 3.0 0.00 0.05 0.05 84 1017.5
20210615053004 59 225 0.0 2.0 0.00 0.05 0.05 84 1017.5
20210615052504 59 248 0.0 2.0 0.00 0.05 0.05 84 1017.5
20210615052005 59 291 0.0 2.0 0.00 0.05 0.05 83 1017.5
20210615051504 60 329 3.0 6.0 0.00 0.05 0.05 84 1017.5
20210615051005 59 338 2.0 3.0 0.00 0.05 0.05 84 1017.5
20210615050505 59 315 1.0 2.0 0.00 0.05 0.05 84 1017.5
20210615050005 59 315 0.0 1.0 0.00 0.05 0.05 83 1017.5
20210615045504 60 315 0.0 5.0 0.00 0.05 0.05 83 1017.5
20210615045005 60 292 0.0 0.0 0.00 0.05 0.05 83 1017.5
20210615044505 60 292 1.0 1.0 0.00 0.05 0.05 83 1017.5
20210615044005 60 292 0.0 1.0 0.00 0.05 0.05 82 1017.5
20210615043504 60 321 1.0 2.0 0.00 0.05 0.05 82 1017.5
20210615043005 60 270 1.0 1.0 0.00 0.05 0.05 82 1017.5
20210615042505 61 325 1.0 2.0 0.00 0.05 0.05 81 1016.5
20210615042005 61 315 1.0 3.0 0.00 0.05 0.05 81 1016.5
20210615041505 61 330 2.0 6.0 0.00 0.05 0.05 80 1016.5
20210615041005 62 278 2.0 5.0 0.00 0.05 0.05 79 1016.5
20210615040505 62 338 2.0 3.0 0.00 0.05 0.05 79 1016.5
20210615040005 62 335 2.0 8.0 0.00 0.05 0.05 78 1016.5
20210615035505 62 343 2.0 6.0 0.00 0.05 0.05 77 1016.5
20210615035005 63 338 3.0 5.0 0.00 0.05 0.05 76 1016.5
20210615034505 63 290 1.0 3.0 0.00 0.05 0.05 75 1016.5
20210615034005 64 325 2.0 3.0 0.00 0.05 0.05 74 1016.5
20210615033505 64 277 2.0 8.0 0.00 0.05 0.05 74 1016.5
20210615033005 64 292 1.0 2.0 0.00 0.05 0.05 73 1016.5
20210615032504 64 310 1.0 1.0 0.00 0.05 0.05 74 1016.5
20210615032004 64 338 1.0 1.0 0.00 0.05 0.05 73 1016.5
20210615031505 65 315 0.0 1.0 0.00 0.05 0.05 72 1016.5
20210615031005 65 307 1.0 1.0 0.00 0.05 0.05 72 1015.5
20210615030505 65 292 1.0 1.0 0.00 0.05 0.05 72 1015.5
20210615030005 65 315 1.0 1.0 0.00 0.05 0.05 72 1015.5
20210615025505 65 315 0.0 2.0 0.00 0.08 0.05 71 1015.5
20210615025005 65 315 0.0 2.0 0.00 0.08 0.05 71 1015.5
20210615024505 65 260 1.0 2.0 0.00 0.08 0.05 70 1015.5
20210615024004 66 292 0.0 1.0 0.00 0.08 0.05 69 1016.5
20210615023504 66 315 0.0 2.0 0.00 0.08 0.05 69 1016.5
20210615023005 66 64 0.0 2.0 0.00 0.08 0.05 69 1016.5
20210615022504 66 281 0.0 2.0 0.00 0.08 0.05 69 1015.5
20210615022005 66 33 0.0 1.0 0.00 0.08 0.05 69 1015.5
20210615021505 66 338 1.0 2.0 0.00 0.08 0.05 68 1015.5
20210615021005 67 202 1.0 3.0 0.00 0.08 0.05 67 1016.5
20210615020505 67 181 2.0 5.0 0.00 0.13 0.05 67 1016.5
20210615020005 67 198 3.0 5.0 0.00 0.13 0.05 67 1016.5
20210615015504 67 180 5.0 8.0 0.00 0.13 0.05 67 1017.5
20210615015007 67 182 3.0 6.0 0.00 0.13 0.05 69 1017.5
20210615014505 66 191 5.0 6.0 0.00 0.13 0.05 71 1017.5
20210615014005 66 180 4.0 6.0 0.00 0.13 0.05 71 1016.5
20210615013505 66 180 3.0 5.0 0.00 0.13 0.05 71 1016.5
20210615013004 66 225 0.0 1.0 0.00 0.13 0.05 71 1016.5
20210615012504 66 202 2.0 6.0 0.00 0.13 0.05 69 1016.5
20210615012005 66 191 4.0 6.0 0.00 0.13 0.05 69 1016.5
20210615011504 66 180 4.0 6.0 0.00 0.13 0.05 69 1016.5
20210615011005 66 199 1.0 3.0 0.00 0.13 0.05 69 1016.5
20210615010505 66 196 1.0 5.0 0.00 0.13 0.05 69 1016.5
20210615010005 67 180 3.0 7.0 0.00 0.13 0.05 69 1016.5
20210615005505 67 180 3.0 5.0 0.00 0.13 0.05 69 1016.5
20210615005005 67 180 4.0 8.0 0.00 0.13 0.05 68 1016.5
20210615004505 67 179 3.0 7.0 0.00 0.13 0.05 68 1016.5
20210615004004 67 190 6.0 8.0 0.00 0.13 0.05 68 1016.5
20210615003505 67 180 3.0 5.0 0.00 0.13 0.05 69 1016.5
20210615003005 67 185 5.0 9.0 0.00 0.13 0.05 68 1016.5
20210615002504 67 198 6.0 7.0 0.00 0.13 0.05 69 1015.5
20210615002004 67 192 3.0 6.0 0.00 0.13 0.05 71 1015.5
20210615001504 67 91 3.0 6.0 0.00 0.13 0.05 69 1015.5
20210615001005 67 158 3.0 10.0 0.00 0.17 0.05 71 1015.5
20210615000504 68 189 2.0 8.0 0.00 0.17 0.05 70 1015.5
20210615000005 68 191 2.0 3.0 0.00 0.17 0.05 71 1015.5
20210614235505 67 221 6.0 10.0 0.00 0.17 0.05 70 1016.5
20210614235004 68 190 3.0 6.0 0.00 0.17 0.05 71 1016.5
20210614234504 67 203 4.0 8.0 0.00 0.17 0.05 72 1016.5
20210614234005 68 196 5.0 10.0 0.00 0.17 0.05 71 1016.5
20210614233505 67 193 3.0 8.0 0.00 0.17 0.05 75 1016.5
20210614233004 67 176 4.0 9.0 0.00 0.21 0.05 74 1016.5
20210614232505 68 180 5.0 9.0 0.00 0.21 0.05 76 1015.5
20210614232005 67 170 5.0 9.0 0.00 0.21 0.05 76 1015.5
20210614231505 67 195 5.0 10.0 0.00 0.21 0.05 75 1015.5
20210614231004 68 200 2.0 8.0 0.00 0.21 0.05 80 1016.5
20210614230504 67 258 2.0 3.0 0.00 0.21 0.05 81 1016.5
20210614230005 67 198 3.0 8.0 0.00 0.21 0.05 82 1016.5
20210614225504 66 173 2.0 6.0 0.00 0.21 0.05 81 1016.5
20210614225005 66 165 2.0 9.0 0.00 0.21 0.05 83 1016.5
20210614224504 66 176 2.0 5.0 0.00 0.21 0.05 85 1016.5
20210614224004 65 180 2.0 5.0 0.00 0.21 0.05 85 1016.5
20210614223505 65 157 2.0 3.0 0.00 0.21 0.05 86 1016.5
20210614223005 64 117 2.0 6.0 0.00 0.21 0.05 85 1016.5
20210614222505 64 127 2.0 6.0 0.00 0.21 0.05 86 1016.5
20210614222004 64 189 3.0 6.0 0.00 0.21 0.05 86 1016.5
20210614221505 64 175 5.0 6.0 0.00 0.21 0.05 85 1016.5
20210614221004 63 190 6.0 6.0 0.00 0.21 0.05 85 1016.5
20210614220504 63 191 6.0 10.0 0.00 0.21 0.05 85 1016.5
20210614220004 63 182 5.0 6.0 0.00 0.21 0.05 85 1016.5
20210614215505 63 180 7.0 9.0 0.00 0.21 0.05 86 1016.5
20210614215004 64 187 5.0 8.0 0.00 0.21 0.05 87 1016.5
20210614214504 64 170 5.0 9.0 0.00 0.21 0.05 88 1016.5
20210614214005 63 183 5.0 8.0 0.00 0.21 0.05 88 1016.5
20210614213505 63 180 5.0 8.0 0.00 0.21 0.05 90 1016.5
20210614213005 63 193 3.0 7.0 0.00 0.21 0.05 90 1016.5
20210614212505 63 192 3.0 6.0 0.00 0.21 0.05 90 1016.5
20210614212004 63 169 6.0 13.0 0.00 0.21 0.05 91 1016.5
20210614211504 63 180 3.0 5.0 0.00 0.21 0.05 92 1016.5
20210614211005 63 186 3.0 7.0 0.00 0.21 0.05 92 1016.5
20210614210505 63 184 6.0 8.0 0.00 0.26 0.05 93 1016.5
20210614210004 63 179 2.0 7.0 0.00 0.26 0.05 94 1016.5
20210614205504 63 192 1.0 2.0 0.00 0.26 0.05 94 1016.5
20210614205005 62 180 3.0 5.0 0.00 0.26 0.05 94 1016.5
20210614204504 62 198 2.0 6.0 0.00 0.26 0.05 95 1016.5
20210614204004 62 191 7.0 8.0 0.00 0.26 0.05 95 1016.5
20210614203504 62 183 4.0 6.0 0.00 0.26 0.05 96 1016.5
20210614203005 62 184 4.0 6.0 0.00 0.26 0.05 96 1016.5
20210614202505 62 183 2.0 7.0 0.00 0.26 0.05 96 1016.5
20210614202004 61 182 5.0 8.0 0.00 0.26 0.05 95 1016.5
20210614201504 61 191 6.0 10.0 0.00 0.26 0.05 96 1016.5
20210614201004 61 195 6.0 7.0 0.00 0.26 0.05 96 1015.5
20210614200504 61 198 3.0 8.0 0.00 0.26 0.05 96 1015.5
20210614200005 61 197 2.0 6.0 0.00 0.26 0.05 96 1015.5
20210614195505 61 175 3.0 8.0 0.00 0.26 0.05 96 1016.5
20210614195004 61 180 2.0 8.0 0.00 0.26 0.05 96 1016.5
20210614194504 61 192 3.0 8.0 0.00 0.26 0.05 96 1016.5
20210614194004 61 180 3.0 6.0 0.00 0.26 0.05 96 1016.5
20210614193504 61 188 5.0 8.0 0.00 0.26 0.05 96 1016.5
20210614193004 61 184 5.0 13.0 0.00 0.26 0.05 96 1016.5
20210614192504 62 185 4.0 7.0 0.00 0.26 0.05 97 1016.5
20210614192005 62 190 1.0 5.0 0.00 0.26 0.05 97 1016.5
20210614191505 62 188 1.0 6.0 0.00 0.26 0.05 96 1016.5
20210614191005 62 187 4.0 8.0 0.00 0.26 0.05 97 1016.5
20210614190505 62 194 2.0 6.0 0.00 0.26 0.05 97 1016.5
20210614190004 62 177 3.0 8.0 0.00 0.26 0.05 97 1016.5
20210614185504 63 184 5.0 8.0 0.00 0.26 0.05 97 1016.5
20210614185004 63 199 2.0 3.0 0.00 0.26 0.05 98 1016.5
20210614184504 62 195 1.0 3.0 0.00 0.26 0.05 98 1016.5
20210614184004 62 194 3.0 5.0 0.00 0.26 0.05 98 1016.5
20210614183504 61 183 6.0 8.0 0.00 0.26 0.05 97 1016.5
20210614183004 61 190 6.0 8.0 0.00 0.26 0.05 98 1016.5
20210614182504 61 183 5.0 6.0 0.00 0.26 0.05 98 1015.5
20210614182005 62 197 2.0 5.0 0.00 0.26 0.05 98 1015.5
20210614181505 61 185 2.0 3.0 0.00 0.26 0.05 98 1015.5
20210614181005 61 180 3.0 5.0 0.00 0.26 0.05 98 1015.5
20210614180505 61 180 1.0 2.0 0.00 0.26 0.05 98 1015.5
20210614180004 61 139 2.0 6.0 0.00 0.26 0.05 98 1015.5
20210614175504 61 188 6.0 7.0 0.00 0.26 0.05 98 1015.5
20210614175004 60 175 5.0 7.0 0.00 0.26 0.05 98 1015.5
20210614174504 61 176 5.0 8.0 0.00 0.26 0.05 98 1015.5
20210614174005 61 180 3.0 6.0 0.00 0.26 0.05 98 1015.5
20210614173504 61 184 6.0 9.0 0.00 0.26 0.05 98 1015.5
20210614173005 61 186 3.0 9.0 0.00 0.26 0.05 98 1015.5
20210614172504 61 183 4.0 7.0 0.00 0.26 0.05 98 1014.5
20210614172004 60 202 5.0 8.0 0.00 0.26 0.05 98 1014.5
20210614171504 60 196 4.0 7.0 0.00 0.26 0.05 98 1014.5
20210614171004 60 179 3.0 6.0 0.00 0.26 0.05 98 1014.5
20210614170504 60 185 4.0 10.0 0.00 0.26 0.05 98 1014.5
20210614170005 60 194 4.0 7.0 0.00 0.26 0.05 98 1014.5
20210614165504 60 191 6.0 10.0 0.00 0.26 0.05 98 1014.5
20210614165005 60 186 3.0 8.0 0.00 0.26 0.05 98 1014.5
20210614164504 60 196 5.0 8.0 0.00 0.26 0.05 98 1014.5
20210614164004 60 189 4.0 9.0 0.00 0.26 0.05 98 1014.5
20210614163504 60 200 3.0 6.0 0.00 0.26 0.05 98 1014.5
20210614163004 60 191 5.0 6.0 0.00 0.26 0.05 98 1014.5
20210614162504 60 187 4.0 6.0 0.00 0.26 0.05 98 1014.5
20210614162004 60 175 5.0 7.0 0.00 0.26 0.05 98 1014.5
20210614161504 60 187 2.0 7.0 0.00 0.26 0.05 98 1014.5
20210614161004 60 187 4.0 7.0 0.00 0.26 0.05 98 1014.5
20210614160504 60 180 4.0 6.0 0.00 0.26 0.05 98 1014.5
20210614160004 60 187 2.0 6.0 0.05 0.30 0.05 98 1014.5
20210614155504 60 180 2.0 5.0 0.05 0.30 0.05 98 1014.5
20210614155005 60 184 5.0 6.0 0.05 0.30 0.05 98 1014.5
20210614154505 59 184 2.0 6.0 0.05 0.30 0.05 98 1014.5
20210614154005 59 180 5.0 7.0 0.05 0.30 0.05 98 1014.5
20210614153505 59 187 5.0 6.0 0.05 0.30 0.05 98 1014.5
20210614153004 59 180 0.0 3.0 0.05 0.30 0.05 98 1014.5
20210614152504 59 180 2.0 6.0 0.05 0.30 0.05 98 1013.5
20210614152004 59 180 2.0 3.0 0.05 0.30 0.05 98 1013.5
20210614151504 59 202 1.0 2.0 0.05 0.30 0.05 98 1013.5
20210614151005 59 202 2.0 5.0 0.05 0.30 0.05 98 1013.5
20210614150504 59 183 2.0 5.0 0.05 0.30 0.05 98 1013.5
20210614150004 59 180 2.0 5.0 0.00 0.25 0.00 98 1013.5
20210614145506 59 180 4.0 6.0 0.00 0.25 0.00 98 1014.5
20210614145004 59 177 3.0 6.0 0.00 0.25 0.00 98 1014.5
20210614144504 59 187 3.0 7.0 0.00 0.25 0.00 98 1014.5
20210614144005 59 191 1.0 5.0 0.00 0.25 0.00 98 1014.5
20210614143505 59 180 2.0 5.0 0.00 0.25 0.00 98 1014.5
20210614143005 59 180 3.0 5.0 0.00 0.25 0.00 98 1014.5
20210614142504 59 180 1.0 3.0 0.00 0.25 0.00 98 1014.5
20210614142004 59 180 4.0 7.0 0.00 0.25 0.00 98 1014.5
20210614141504 59 180 3.0 5.0 0.00 0.25 0.00 98 1014.5
20210614141005 59 180 2.0 5.0 0.00 0.25 0.00 98 1014.5
20210614140504 59 187 2.0 3.0 0.00 0.25 0.00 98 1014.5
20210614140004 59 180 3.0 5.0 0.00 0.25 0.00 98 1014.5
20210614135505 59 180 2.0 3.0 0.00 0.25 0.00 98 1014.5
20210614135004 59 158 1.0 1.0 0.00 0.25 0.00 98 1014.5
20210614134504 59 112 1.0 2.0 0.00 0.25 0.00 98 1014.5
20210614134004 59 180 0.0 1.0 0.00 0.25 0.00 98 1014.5
20210614133504 59 180 0.0 2.0 0.00 0.25 0.00 98 1014.5
20210614133004 58 187 2.0 3.0 0.00 0.25 0.00 98 1014.5
20210614132504 58 179 2.0 2.0 0.00 0.25 0.00 98 1014.5
20210614132004 58 202 1.0 2.0 0.00 0.25 0.00 98 1014.5
20210614131504 58 180 1.0 2.0 0.00 0.25 0.00 98 1014.5
20210614131004 58 180 0.0 0.0 0.00 0.25 0.00 98 1014.5
20210614130504 58 180 0.0 1.0 0.00 0.25 0.00 98 1014.5
20210614130004 58 180 0.0 0.0 0.00 0.25 0.00 98 1014.5
20210614125504 58 180 0.0 0.0 0.00 0.25 0.00 98 1014.5
20210614125004 58 180 0.0 0.0 0.00 0.25 0.00 98 1014.5
20210614124503 58 180 0.0 0.0 0.00 0.25 0.00 98 1014.5
20210614124004 58 180 0.0 0.0 0.00 0.25 0.00 98 1013.5
20210614123504 58 180 2.0 3.0 0.00 0.25 0.00 98 1013.5
20210614123004 58 180 1.0 5.0 0.00 0.25 0.00 98 1013.5
20210614122504 58 180 2.0 5.0 0.00 0.25 0.00 98 1013.5
20210614122004 58 180 0.0 0.0 0.00 0.25 0.00 98 1013.5
20210614121503 58 180 2.0 3.0 0.00 0.25 0.00 98 1013.5
20210614121004 58 202 2.0 3.0 0.00 0.25 0.00 98 1013.5
20210614120505 58 237 0.0 3.0 0.00 0.25 0.00 98 1013.5
20210614120004 58 292 1.0 1.0 0.00 0.25 0.00 98 1013.5
20210614115504 58 292 0.0 0.0 0.00 0.25 0.00 98 1013.5
20210614115004 58 292 0.0 0.0 0.00 0.25 0.00 98 1013.5
20210614114504 58 292 0.0 0.0 0.00 0.25 0.00 98 1013.5
20210614114004 58 275 0.0 1.0 0.00 0.25 0.00 98 1013.5
20210614113504 58 248 0.0 1.0 0.00 0.25 0.00 98 1013.5
20210614113004 58 248 0.0 1.0 0.00 0.25 0.00 98 1013.5
20210614112504 58 248 0.0 0.0 0.00 0.25 0.00 98 1013.5
20210614112004 58 248 0.0 1.0 0.00 0.25 0.00 98 1013.5
20210614111504 58 251 0.0 1.0 0.00 0.25 0.00 98 1013.5
20210614111004 58 270 0.0 0.0 0.00 0.25 0.00 98 1013.5
20210614110505 58 202 0.0 0.0 0.00 0.25 0.00 98 1013.5
20210614110004 58 202 1.0 2.0 0.00 0.30 0.00 98 1013.5
20210614105504 58 248 0.0 0.0 0.00 0.30 0.00 98 1013.5
20210614105004 58 248 0.0 0.0 0.00 0.30 0.00 98 1013.5
20210614104506 58 202 1.0 3.0 0.00 0.30 0.00 98 1013.5
20210614104003 58 195 2.0 3.0 0.00 0.30 0.00 98 1013.5
20210614103504 58 22 0.0 0.0 0.00 0.30 0.00 98 1013.5
20210614103004 58 22 0.0 0.0 0.00 0.30 0.00 98 1013.5
20210614102504 58 22 0.0 0.0 0.00 0.30 0.00 98 1013.5
20210614102004 58 338 0.0 0.0 0.00 0.30 0.00 98 1013.5
20210614101505 58 315 1.0 1.0 0.00 0.30 0.00 98 1013.5